Regional Weather Roundup
Issued by NWS

Home | Current Version | Previous Version | Graphics & Text | Print | Product List | Glossary On
Versions: 1 2 3 4 5 6 7 8 9 10 11 12 13 14 15 16 17 18 19 20 21 22 23 24 25 26 27 28 29 30 31 32 33 34 35 36 37 38 39 40 41 42 43 44 45 46 47 48 49 50
000
ASUS43 KMKX 231021
RWRWI

WISCONSIN REGIONAL WEATHER ROUNDUP
NATIONAL WEATHER SERVICE MILWAUKEE/SULLIVAN WI
500 AM CDT WED APR 23 2014

NOTE: "FAIR" INDICATES FEW OR NO CLOUDS BELOW 12,000 FEET WITH NO
SIGNIFICANT WEATHER AND/OR OBSTRUCTIONS TO VISIBILITY.

WIZ001-002-006>008-014>016-023>028-231100-
NORTHWEST WISCONSIN

CITY           SKY/WX    TMP DP  RH WIND       PRES   REMARKS
SUPERIOR ARPT  CLEAR     29  28  94 NE7       30.14S WCI  22
ASHLAND        CLEAR     24  22  91 W3        30.16R
HAYWARD        CLEAR     24  21  88 CALM      30.13S
SIREN          PTCLDY    29  24  83 CALM      30.11S
RICE LAKE      PTCLDY    29  26  90 CALM      30.13F
LADYSMITH      CLEAR     29  26  87 E3        30.15S
EAU CLAIRE     MOCLDY    32  27  81 NE6       30.11F WCI  26
MENOMONIE      PTSUNNY   35  27  71 CALM      30.12S
NEW RICHMOND   CLOUDY    37  28  70 CALM      30.11S
OSCEOLA        CLOUDY    39  28  66 E6        30.13S WCI  34
$$

WIZ003>005-009-010-017-018-231100-
NORTH CENTRAL WISCONSIN

CITY           SKY/WX    TMP DP  RH WIND       PRES   REMARKS
WOODRUFF       CLEAR     22  12  64 CALM      30.12F
RHINELANDER    CLEAR     23  20  88 CALM      30.12F
EAGLE RIVER    CLEAR     22  22 100 CALM      30.13S
LAND O LAKES   CLEAR     19  18  95 CALM      30.14R
PHILLIPS       PTCLDY    24  23  93 CALM      30.13S
TOMAHAWK       CLEAR     20  19  94 CALM      30.14S
MEDFORD        CLEAR     28  25  91 E6        30.13S WCI  21
MERRILL        CLEAR     24  23  96 CALM      30.15R
$$

WIZ029-030-035-036-043>047-231100-
CENTRAL WISCONSIN

CITY           SKY/WX    TMP DP  RH WIND       PRES   REMARKS
WAUSAU         CLEAR     29  25  85 CALM      30.14R
MOSINEE        CLEAR     32  28  86 N3        30.15S
MARSHFIELD     CLEAR     32  25  75 CALM      30.14R
STEVENS POINT  CLEAR     22  20  91 CALM      30.15S
WAUPACA        CLEAR     30  27  86 CALM      30.16S
WAUTOMA        CLEAR     27  25  92 CALM      30.16R
WISC RAPIDS    CLEAR     27  24  89 CALM      30.16R
CAMP DOUGLAS   CLEAR     25  25 100 CALM      30.14S
$$

WIZ011>013-019>022-031-037>040-048>050-231100-
NORTHEAST WISCONSIN

CITY           SKY/WX    TMP DP  RH WIND       PRES   REMARKS
ANTIGO         CLEAR     25  24  96 CALM      30.14S
STURGEON BAY   CLEAR     30  25  80 NW6       30.15R WCI  24
GREEN BAY      CLEAR     30  27  88 N6        30.16R WCI  24
MANITOWOC      CLEAR     32  27  81 N3        30.16R
APPLETON       CLEAR     32  25  74 N3        30.15S
CLINTONVILLE   CLEAR     30  27  86 CALM      30.16R
OSHKOSH        CLEAR     33  24  69 N6        30.16R WCI  28
$$

WIZ032>034-041-042-053>061-231100-
SOUTHWEST WISCONSIN

CITY           SKY/WX    TMP DP  RH WIND       PRES   REMARKS
LA CROSSE      PTCLDY    37  27  67 SE5       30.13S WCI  33
SPARTA         PTCLDY    27  24  87 CALM      30.15R
VIROQUA        FAIR      33  27  79 E8        30.11S WCI  26
BOSCOBEL       PTCLDY    31  27  85 CALM      30.14R
PRAIRIE DU CHI PTCLDY    41  29  62 CALM      30.13R
PLATTEVILLE    FAIR      34  27  76 E3        30.13S
$$

WIZ056-057-062-063-064-067-068-231100-
SOUTH CENTRAL WISCONSIN

CITY           SKY/WX    TMP DP  RH WIND       PRES   REMARKS
BARABOO/DELLS  CLEAR     34  26  71 NE5       30.14S WCI  30
LONE ROCK      CLEAR     31  27  85 CALM      30.14R
WATERTOWN      CLEAR     31  27  85 CALM      30.14S
MADISON        CLEAR     32  27  81 CALM      30.16R
MIDDLETON      FAIR      35  30  84 E7        30.14S WCI  29
MONROE         CLEAR     36  29  77 CALM      30.13R
JANESVILLE     CLEAR     30  27  86 NE6       30.13S WCI  24
$$

WIZ051-052-058>065-066-070>072-231100-
SOUTHEAST WISCONSIN

CITY           SKY/WX    TMP DP  RH WIND       PRES   REMARKS
MILWAUKEE      PTCLDY    34  27  75 N6        30.15S WCI  29
WAUKESHA       CLEAR     30  28  93 CALM      30.15S
MILWAUKEE/TIMM CLEAR     32  27  80 CALM      30.16R
RACINE         CLEAR     34  28  79 N8        30.16R WCI  27
BURLINGTON     CLEAR     25  24  98 SW6       30.15R WCI  18
KENOSHA        CLEAR     32  27  81 N5        30.14R WCI  27
FOND DU LAC    CLEAR     28  26  92 CALM      30.15S
SHEBOYGAN      CLEAR     30  25  81 NW3       30.15R
WEST BEND      CLEAR     30  28  93 CALM      30.15S
JUNEAU         CLEAR     33  27  80 CALM      30.15S
$$

LSZ147-162-231100-
LAKE SUPERIOR

STATION/POSITION TIME  TEMP    WIND        PRES    WAVE
                       AIR SEA DIR/SP/G            HT/PER
                 (UTC) (F)     (DEG/KT/KT) (MB)    (FT/S)
DEVILS ISLAND    1000   35     110/  4/  4 1021.7S
PORT WING        0940   26     190/  1/  2 1020.7S
SAXON HARBOR     0900          190/  3/  6 1020.7S
$$

LMZ867-665-643>646-231100-
LAKE MICHIGAN

STATION/POSITION TIME  TEMP    WIND        PRES    WAVE
                       AIR SEA DIR/SP/G            HT/PER
                 (UTC) (F)     (DEG/KT/KT) (MB)    (FT/S)
NORTHPORT PIER   0900   30     310/  5/  7 1020.0S
SISTER BAY       0909   31     360/  8/  9   N/A
KEWAUNEE LAKESHO 1000   29     310/  5/  7 1021.4R
SHEBOYGAN LAKESH 1000   36     310/  6/  8 1021.9R
PORT WASHINGTON  0900   34     300/  5/  7 1021.3R
MILWAUKEE LAKESH 1000   36     340/  5/  7   N/A
KENOSHA   LAKESH 1000   37      20/ 18/ 20   N/A
$$

TC  - TEMPERATURE IN CELSIUS
VSB - VISIBILITY IN STATUTE MILES
WCI - WIND CHILL INDEX
HX  - HEAT INDEX




USA.gov is the U.S. government's official web portal to all federal, state and local government web resources and services.